#datetime,building,power
2023-11-14T00:00:00,pth,3.60
2023-11-14T00:02:00,pth,3.60
2023-11-14T00:04:00,pth,7.20
2023-11-14T00:06:00,pth,7.20
2023-11-14T00:07:00,pth,4.80
2023-11-14T00:09:00,pth,8.40
2023-11-14T00:10:00,pth,4.80
2023-11-14T00:11:00,pth,4.80
2023-11-14T00:13:00,pth,8.40
2023-11-14T00:14:00,pth,3.60
2023-11-14T00:16:00,pth,3.60
2023-11-14T00:19:00,pth,4.80
2023-11-14T00:21:00,pth,2.40
2023-11-14T00:23:00,pth,3.60
2023-11-14T00:25:00,pth,2.40
2023-11-14T00:27:00,pth,2.40
2023-11-14T00:28:00,pth,1.20
2023-11-14T00:29:00,pth,2.40
2023-11-14T00:31:00,pth,6.00
2023-11-14T00:33:00,pth,4.80
2023-11-14T00:34:00,pth,2.40
2023-11-14T00:37:00,pth,4.80
2023-11-14T00:38:00,pth,3.60
2023-11-14T00:39:00,pth,1.20
2023-11-14T00:40:00,pth,2.40
2023-11-14T00:43:00,pth,2.40
2023-11-14T00:44:00,pth,3.60
2023-11-14T00:46:00,pth,3.60
2023-11-14T00:49:00,pth,6.00
2023-11-14T00:51:00,pth,3.60
2023-11-14T00:53:00,pth,4.80
2023-11-14T00:55:00,pth,4.80
2023-11-14T00:57:00,pth,4.80
2023-11-14T00:58:00,pth,2.40
2023-11-14T01:01:00,pth,6.00
2023-11-14T01:02:00,pth,3.60
2023-11-14T01:04:00,pth,2.40
2023-11-14T01:05:00,pth,1.20
2023-11-14T01:07:00,pth,3.60
2023-11-14T01:09:00,pth,2.40
2023-11-14T01:11:00,pth,3.60
2023-11-14T01:13:00,pth,1.20
2023-11-14T01:14:00,pth,3.60
2023-11-14T01:16:00,pth,4.80
2023-11-14T01:17:00,pth,2.40
2023-11-14T01:19:00,pth,4.80
2023-11-14T01:20:00,pth,2.40
2023-11-14T01:22:00,pth,4.80
2023-11-14T01:24:00,pth,3.60
2023-11-14T01:25:00,pth,1.20
2023-11-14T01:26:00,pth,2.40
2023-11-14T01:28:00,pth,2.40
2023-11-14T01:30:00,pth,2.40
2023-11-14T01:32:00,pth,2.40
2023-11-14T01:33:00,pth,1.20
2023-11-14T01:35:00,pth,3.60
2023-11-14T01:37:00,pth,3.60
2023-11-14T01:39:00,pth,4.80
2023-11-14T01:40:00,pth,2.40
2023-11-14T01:42:00,pth,3.60
2023-11-14T01:44:00,pth,4.80
2023-11-14T01:46:00,pth,4.80
2023-11-14T01:48:00,pth,1.20
2023-11-14T01:49:00,pth,2.40
2023-11-14T01:51:00,pth,1.20
2023-11-14T01:54:00,pth,3.60
2023-11-14T01:56:00,pth,2.40
2023-11-14T01:58:00,pth,3.60
2023-11-14T02:00:00,pth,4.80
2023-11-14T02:02:00,pth,4.80
2023-11-14T02:04:00,pth,4.80
2023-11-14T02:06:00,pth,4.80
2023-11-14T02:08:00,pth,4.80
2023-11-14T02:09:00,pth,1.20
2023-11-14T02:12:00,pth,2.40
2023-11-14T02:13:00,pth,2.40
2023-11-14T02:15:00,pth,3.60
2023-11-14T02:18:00,pth,2.40
2023-11-14T02:19:00,pth,2.40
2023-11-14T02:21:00,pth,2.40
2023-11-14T02:24:00,pth,4.80
2023-11-14T02:25:00,pth,3.60
2023-11-14T02:27:00,pth,4.80
2023-11-14T02:28:00,pth,2.40
2023-11-14T02:30:00,pth,4.80
2023-11-14T02:32:00,pth,4.80
2023-11-14T02:33:00,pth,1.20
2023-11-14T02:36:00,pth,2.40
2023-11-14T02:37:00,pth,2.40
2023-11-14T02:38:00,pth,1.20
2023-11-14T02:40:00,pth,2.40
2023-11-14T02:42:00,pth,1.20
2023-11-14T02:43:00,pth,2.40
2023-11-14T02:45:00,pth,2.40
2023-11-14T02:46:00,pth,2.40
2023-11-14T02:48:00,pth,3.60
2023-11-14T02:50:00,pth,4.80
2023-11-14T02:52:00,pth,4.80
2023-11-14T02:53:00,pth,1.20
2023-11-14T02:54:00,pth,2.40
2023-11-14T02:56:00,pth,3.60
2023-11-14T02:58:00,pth,2.40
2023-11-14T02:59:00,pth,1.20
2023-11-14T03:01:00,pth,2.40
2023-11-14T03:02:00,pth,2.40
2023-11-14T03:03:00,pth,1.20
2023-11-14T03:05:00,pth,1.20
2023-11-14T03:07:00,pth,2.40
2023-11-14T03:09:00,pth,2.40
2023-11-14T03:11:00,pth,4.80
2023-11-14T03:13:00,pth,4.80
2023-11-14T03:15:00,pth,3.60
2023-11-14T03:16:00,pth,2.40
2023-11-14T03:18:00,pth,4.80
2023-11-14T03:19:00,pth,1.20
2023-11-14T03:21:00,pth,2.40
2023-11-14T03:23:00,pth,2.40
2023-11-14T03:25:00,pth,3.60
2023-11-14T03:26:00,pth,1.20
2023-11-14T03:29:00,pth,3.60
2023-11-14T03:31:00,pth,2.40
2023-11-14T03:32:00,pth,1.20
2023-11-14T03:35:00,pth,4.80
2023-11-14T03:36:00,pth,4.80
2023-11-14T03:38:00,pth,3.60
2023-11-14T03:39:00,pth,2.40
2023-11-14T03:41:00,pth,4.80
2023-11-14T03:42:00,pth,2.40
2023-11-14T03:44:00,pth,2.40
2023-11-14T03:45:00,pth,1.20
2023-11-14T03:47:00,pth,2.40
2023-11-14T03:49:00,pth,2.40
2023-11-14T03:51:00,pth,2.40
2023-11-14T03:53:00,pth,3.60
2023-11-14T03:55:00,pth,3.60
2023-11-14T03:57:00,pth,4.80
2023-11-14T03:59:00,pth,3.60
2023-11-14T04:01:00,pth,4.80
2023-11-14T04:02:00,pth,2.40
2023-11-14T04:05:00,pth,3.60
2023-11-14T04:06:00,pth,1.20
2023-11-14T04:07:00,pth,2.40
2023-11-14T04:08:00,pth,1.20
2023-11-14T04:11:00,pth,2.40
2023-11-14T04:12:00,pth,1.20
2023-11-14T04:13:00,pth,1.20
2023-11-14T04:14:00,pth,2.40
2023-11-14T04:15:00,pth,1.20
2023-11-14T04:17:00,pth,3.60
2023-11-14T04:19:00,pth,4.80
2023-11-14T04:21:00,pth,3.60
2023-11-14T04:23:00,pth,2.40
2023-11-14T04:24:00,pth,2.40
2023-11-14T04:26:00,pth,4.80
2023-11-14T04:27:00,pth,3.60
2023-11-14T04:30:00,pth,2.40
2023-11-14T04:32:00,pth,3.60
2023-11-14T04:35:00,pth,3.60
2023-11-14T04:37:00,pth,2.40
2023-11-14T04:39:00,pth,1.20
2023-11-14T04:40:00,pth,4.80
2023-11-14T04:43:00,pth,4.80
2023-11-14T04:45:00,pth,7.20
2023-11-14T04:47:00,pth,2.40
2023-11-14T04:49:00,pth,4.80
2023-11-14T04:51:00,pth,3.60
2023-11-14T04:53:00,pth,3.60
2023-11-14T04:55:00,pth,1.20
2023-11-14T04:56:00,pth,1.20
2023-11-14T04:57:00,pth,2.40
2023-11-14T04:59:00,pth,3.60
2023-11-14T05:01:00,pth,2.40
2023-11-14T05:03:00,pth,1.20
2023-11-14T05:04:00,pth,4.80
2023-11-14T05:06:00,pth,4.80
2023-11-14T05:07:00,pth,2.40
2023-11-14T05:09:00,pth,3.60
2023-11-14T05:12:00,pth,3.60
2023-11-14T05:14:00,pth,2.40
2023-11-14T05:15:00,pth,3.60
2023-11-14T05:17:00,pth,2.40
2023-11-14T05:19:00,pth,2.40
2023-11-14T05:21:00,pth,1.20
2023-11-14T05:23:00,pth,2.40
2023-11-14T05:25:00,pth,3.60
2023-11-14T05:28:00,pth,8.40
2023-11-14T05:30:00,pth,2.40
2023-11-14T05:32:00,pth,3.60
2023-11-14T05:34:00,pth,6.00
2023-11-14T05:37:00,pth,2.40
2023-11-14T05:38:00,pth,1.20
2023-11-14T05:40:00,pth,3.60
2023-11-14T05:42:00,pth,1.20
2023-11-14T05:44:00,pth,2.40
2023-11-14T05:46:00,pth,2.40
2023-11-14T05:47:00,pth,2.40
2023-11-14T05:49:00,pth,3.60
2023-11-14T05:50:00,pth,2.40
2023-11-14T05:51:00,pth,3.60
2023-11-14T05:52:00,pth,2.40
2023-11-14T05:53:00,pth,2.40
2023-11-14T05:56:00,pth,4.80
2023-11-14T05:58:00,pth,4.80
2023-11-14T06:00:00,pth,2.40
2023-11-14T06:02:00,pth,1.20
2023-11-14T06:04:00,pth,2.40
2023-11-14T06:05:00,pth,2.40
2023-11-14T06:06:00,pth,1.20
2023-11-14T06:08:00,pth,1.20
2023-11-14T06:10:00,pth,4.80
2023-11-14T06:12:00,pth,2.40
2023-11-14T06:14:00,pth,4.80
2023-11-14T06:16:00,pth,6.00
2023-11-14T06:17:00,pth,2.40
2023-11-14T06:19:00,pth,4.80
2023-11-14T06:22:00,pth,2.40
2023-11-14T06:23:00,pth,2.40
2023-11-14T06:25:00,pth,2.40
2023-11-14T06:28:00,pth,2.40
2023-11-14T06:29:00,pth,2.40
2023-11-14T06:32:00,pth,2.40
2023-11-14T06:34:00,pth,3.60
2023-11-14T06:35:00,pth,3.60
2023-11-14T06:37:00,pth,4.80
2023-11-14T06:40:00,pth,4.80
2023-11-14T06:42:00,pth,3.60
2023-11-14T06:43:00,pth,2.40
2023-11-14T06:44:00,pth,3.60
2023-11-14T06:46:00,pth,1.20
2023-11-14T06:47:00,pth,2.40
2023-11-14T06:48:00,pth,2.40
2023-11-14T06:50:00,pth,3.60
2023-11-14T06:52:00,pth,2.40
2023-11-14T06:54:00,pth,3.60
2023-11-14T06:56:00,pth,7.20
2023-11-14T06:58:00,pth,7.20
2023-11-14T06:59:00,pth,2.40
2023-11-14T07:01:00,pth,6.00
2023-11-14T07:02:00,pth,2.40
2023-11-14T07:04:00,pth,2.40
2023-11-14T07:05:00,pth,4.80
2023-11-14T07:07:00,pth,3.60
2023-11-14T07:10:00,pth,4.80
2023-11-14T07:12:00,pth,2.40
2023-11-14T07:14:00,pth,3.60
2023-11-14T07:16:00,pth,2.40
2023-11-14T07:17:00,pth,2.40
2023-11-14T07:18:00,pth,2.40
2023-11-14T07:20:00,pth,3.60
2023-11-14T07:22:00,pth,4.80
2023-11-14T07:23:00,pth,2.40
2023-11-14T07:25:00,pth,4.80
2023-11-14T07:26:00,pth,2.40
2023-11-14T07:28:00,pth,3.60
2023-11-14T07:29:00,pth,1.20
2023-11-14T07:31:00,pth,2.40
2023-11-14T07:34:00,pth,2.40
2023-11-14T07:35:00,pth,2.40
2023-11-14T07:37:00,pth,2.40
2023-11-14T07:39:00,pth,1.20
2023-11-14T07:40:00,pth,2.40
2023-11-14T07:41:00,pth,3.60
2023-11-14T07:43:00,pth,2.40
2023-11-14T07:45:00,pth,3.60
2023-11-14T07:46:00,pth,4.80
2023-11-14T07:48:00,pth,3.60
2023-11-14T07:51:00,pth,3.60
2023-11-14T07:52:00,pth,1.20
2023-11-14T07:53:00,pth,1.20
2023-11-14T07:57:00,pth,3.60
2023-11-14T07:59:00,pth,1.20
2023-11-14T08:01:00,pth,2.40
2023-11-14T08:03:00,pth,1.20
2023-11-14T08:04:00,pth,3.60
2023-11-14T08:07:00,pth,3.60
2023-11-14T08:09:00,pth,4.80
2023-11-14T08:11:00,pth,3.60
2023-11-14T08:12:00,pth,1.20
2023-11-14T08:14:00,pth,2.40
2023-11-14T08:15:00,pth,1.20
2023-11-14T08:17:00,pth,2.40
2023-11-14T08:18:00,pth,1.20
2023-11-14T08:20:00,pth,2.40
2023-11-14T08:21:00,pth,1.20
2023-11-14T08:23:00,pth,2.40
2023-11-14T08:25:00,pth,3.60
2023-11-14T08:27:00,pth,4.80
2023-11-14T08:28:00,pth,1.20
2023-11-14T08:29:00,pth,3.60
2023-11-14T08:30:00,pth,3.60
2023-11-14T08:32:00,pth,4.80
2023-11-14T08:33:00,pth,2.40
2023-11-14T08:35:00,pth,4.80
2023-11-14T08:37:00,pth,2.40
2023-11-14T08:39:00,pth,2.40
2023-11-14T08:41:00,pth,1.20
2023-11-14T08:42:00,pth,1.20
2023-11-14T08:44:00,pth,2.40
2023-11-14T08:45:00,pth,1.20
2023-11-14T08:46:00,pth,1.20
2023-11-14T08:48:00,pth,3.60
2023-11-14T08:50:00,pth,3.60
2023-11-14T08:52:00,pth,3.60
2023-11-14T08:53:00,pth,2.40
2023-11-14T08:55:00,pth,4.80
2023-11-14T08:57:00,pth,3.60
2023-11-14T08:58:00,pth,2.40
2023-11-14T08:59:00,pth,1.20
2023-11-14T09:01:00,pth,2.40
2023-11-14T09:03:00,pth,2.40
2023-11-14T09:05:00,pth,1.20
2023-11-14T09:07:00,pth,2.40
2023-11-14T09:08:00,pth,1.20
2023-11-14T09:10:00,pth,1.20
2023-11-14T09:11:00,pth,2.40
2023-11-14T09:13:00,pth,3.60
2023-11-14T09:15:00,pth,6.00
2023-11-14T09:16:00,pth,2.40
2023-11-14T09:17:00,pth,3.60
2023-11-14T09:18:00,pth,2.40
2023-11-14T09:20:00,pth,4.80
2023-11-14T09:21:00,pth,1.20
2023-11-14T09:23:00,pth,3.60
2023-11-14T09:25:00,pth,1.20
2023-11-14T09:27:00,pth,1.20
2023-11-14T09:28:00,pth,1.20
2023-11-14T09:30:00,pth,2.40
2023-11-14T09:32:00,pth,2.40
2023-11-14T09:35:00,pth,3.60
2023-11-14T09:37:00,pth,3.60
2023-11-14T09:38:00,pth,2.40
2023-11-14T09:40:00,pth,3.60
2023-11-14T09:41:00,pth,2.40
2023-11-14T09:42:00,pth,1.20
2023-11-14T09:43:00,pth,2.40
2023-11-14T09:45:00,pth,3.60
2023-11-14T09:47:00,pth,2.40
2023-11-14T09:48:00,pth,1.20
2023-11-14T09:50:00,pth,1.20
2023-11-14T09:52:00,pth,2.40
2023-11-14T09:53:00,pth,1.20
2023-11-14T09:55:00,pth,2.40
2023-11-14T09:57:00,pth,1.20
2023-11-14T09:58:00,pth,1.20
2023-11-14T10:00:00,pth,3.60
2023-11-14T10:01:00,pth,1.20
2023-11-14T10:02:00,pth,2.40
2023-11-14T10:03:00,pth,2.40
2023-11-14T10:05:00,pth,4.80
2023-11-14T10:06:00,pth,2.40
2023-11-14T10:07:00,pth,2.40
2023-11-14T10:08:00,pth,2.40
2023-11-14T10:10:00,pth,3.60
2023-11-14T10:11:00,pth,1.20
2023-11-14T10:12:00,pth,1.20
2023-11-14T10:14:00,pth,2.40
2023-11-14T10:15:00,pth,1.20
2023-11-14T10:17:00,pth,2.40
2023-11-14T10:18:00,pth,1.20
2023-11-14T10:19:00,pth,1.20
2023-11-14T10:21:00,pth,2.40
2023-11-14T10:23:00,pth,6.00
2023-11-14T10:25:00,pth,6.00
2023-11-14T10:27:00,pth,6.00
2023-11-14T10:28:00,pth,3.60
2023-11-14T10:30:00,pth,6.00
2023-11-14T10:32:00,pth,4.80
2023-11-14T10:33:00,pth,2.40
2023-11-14T10:35:00,pth,1.20
2023-11-14T10:37:00,pth,2.40
2023-11-14T10:38:00,pth,1.20
2023-11-14T10:40:00,pth,2.40
2023-11-14T10:41:00,pth,1.20
2023-11-14T10:43:00,pth,1.20
2023-11-14T10:45:00,pth,2.40
2023-11-14T10:47:00,pth,2.40
2023-11-14T10:48:00,pth,1.20
2023-11-14T10:50:00,pth,3.60
2023-11-14T10:52:00,pth,3.60
2023-11-14T10:53:00,pth,2.40
2023-11-14T10:55:00,pth,3.60
2023-11-14T10:57:00,pth,2.40
2023-11-14T10:58:00,pth,1.20
2023-11-14T11:00:00,pth,1.20
2023-11-14T11:01:00,pth,1.20
2023-11-14T11:03:00,pth,1.20
2023-11-14T11:05:00,pth,1.20
2023-11-14T11:06:00,pth,1.20
2023-11-14T11:08:00,pth,1.20
2023-11-14T11:10:00,pth,2.40
2023-11-14T11:11:00,pth,1.20
2023-11-14T11:12:00,pth,2.40
2023-11-14T11:13:00,pth,1.20
2023-11-14T11:15:00,pth,3.60
2023-11-14T11:16:00,pth,2.40
2023-11-14T11:18:00,pth,3.60
2023-11-14T11:20:00,pth,3.60
2023-11-14T11:22:00,pth,2.40
2023-11-14T11:24:00,pth,1.20
2023-11-14T11:26:00,pth,2.40
2023-11-14T11:28:00,pth,1.20
2023-11-14T11:30:00,pth,2.40
2023-11-14T11:32:00,pth,1.20
2023-11-14T11:33:00,pth,1.20
2023-11-14T11:35:00,pth,2.40
2023-11-14T11:37:00,pth,3.60
2023-11-14T11:38:00,pth,1.20
2023-11-14T11:40:00,pth,4.80
2023-11-14T11:42:00,pth,3.60
2023-11-14T11:44:00,pth,3.60
2023-11-14T11:46:00,pth,2.40
2023-11-14T11:48:00,pth,2.40
2023-11-14T11:50:00,pth,1.20
2023-11-14T11:52:00,pth,2.40
2023-11-14T11:55:00,pth,2.40
2023-11-14T11:57:00,pth,1.20
2023-11-14T11:58:00,pth,1.20
2023-11-14T12:00:00,pth,2.40
2023-11-14T12:02:00,pth,3.60
2023-11-14T12:03:00,pth,2.40
2023-11-14T12:05:00,pth,3.60
2023-11-14T12:07:00,pth,3.60
2023-11-14T12:08:00,pth,1.20
2023-11-14T12:10:00,pth,2.40
2023-11-14T12:12:00,pth,1.20
2023-11-14T12:13:00,pth,1.20
2023-11-14T12:15:00,pth,1.20
2023-11-14T12:16:00,pth,1.20
2023-11-14T12:17:00,pth,1.20
2023-11-14T12:18:00,pth,1.20
2023-11-14T12:20:00,pth,1.20
2023-11-14T12:22:00,pth,1.20
2023-11-14T12:24:00,pth,3.60
2023-11-14T12:25:00,pth,2.40
2023-11-14T12:27:00,pth,4.80
2023-11-14T12:28:00,pth,2.40
2023-11-14T12:30:00,pth,4.80
2023-11-14T12:31:00,pth,1.20
2023-11-14T12:33:00,pth,3.60
2023-11-14T12:35:00,pth,2.40
2023-11-14T12:37:00,pth,2.40
2023-11-14T12:38:00,pth,1.20
2023-11-14T12:40:00,pth,3.60
2023-11-14T12:42:00,pth,1.20
2023-11-14T12:43:00,pth,1.20
2023-11-14T12:44:00,pth,1.20
2023-11-14T12:46:00,pth,2.40
2023-11-14T12:48:00,pth,4.80
2023-11-14T12:50:00,pth,3.60
2023-11-14T12:52:00,pth,3.60
2023-11-14T12:53:00,pth,2.40
2023-11-14T12:55:00,pth,4.80
2023-11-14T12:56:00,pth,1.20
2023-11-14T12:58:00,pth,2.40
2023-11-14T13:00:00,pth,2.40
2023-11-14T13:02:00,pth,2.40
2023-11-14T13:03:00,pth,1.20
2023-11-14T13:05:00,pth,2.40
2023-11-14T13:06:00,pth,1.20
2023-11-14T13:07:00,pth,1.20
2023-11-14T13:09:00,pth,3.60
2023-11-14T13:10:00,pth,2.40
2023-11-14T13:12:00,pth,6.00
2023-11-14T13:13:00,pth,3.60
2023-11-14T13:15:00,pth,4.80
2023-11-14T13:17:00,pth,4.80
2023-11-14T13:18:00,pth,2.40
2023-11-14T13:20:00,pth,2.40
2023-11-14T13:22:00,pth,1.20
2023-11-14T13:23:00,pth,1.20
2023-11-14T13:25:00,pth,2.40
2023-11-14T13:26:00,pth,1.20
2023-11-14T13:28:00,pth,2.40
2023-11-14T13:30:00,pth,2.40
2023-11-14T13:31:00,pth,1.20
2023-11-14T13:33:00,pth,3.60
2023-11-14T13:35:00,pth,3.60
2023-11-14T13:37:00,pth,3.60
2023-11-14T13:38:00,pth,2.40
2023-11-14T13:40:00,pth,3.60
2023-11-14T13:41:00,pth,1.20
2023-11-14T13:43:00,pth,2.40
2023-11-14T13:45:00,pth,1.20
2023-11-14T13:46:00,pth,1.20
2023-11-14T13:47:00,pth,1.20
2023-11-14T13:48:00,pth,1.20
2023-11-14T13:50:00,pth,1.20
2023-11-14T13:52:00,pth,2.40
2023-11-14T13:53:00,pth,1.20
2023-11-14T13:55:00,pth,3.60
2023-11-14T13:57:00,pth,3.60
2023-11-14T13:58:00,pth,2.40
2023-11-14T14:00:00,pth,4.80
2023-11-14T14:02:00,pth,3.60
2023-11-14T14:03:00,pth,2.40
2023-11-14T14:05:00,pth,3.60
2023-11-14T14:07:00,pth,2.40
2023-11-14T14:09:00,pth,1.20
2023-11-14T14:11:00,pth,2.40
2023-11-14T14:13:00,pth,2.40
2023-11-14T14:15:00,pth,2.40
2023-11-14T14:16:00,pth,1.20
2023-11-14T14:18:00,pth,2.40
2023-11-14T14:20:00,pth,3.60
2023-11-14T14:21:00,pth,2.40
2023-11-14T14:23:00,pth,4.80
2023-11-14T14:25:00,pth,4.80
2023-11-14T14:26:00,pth,2.40
2023-11-14T14:28:00,pth,3.60
2023-11-14T14:30:00,pth,3.60
2023-11-14T14:31:00,pth,1.20
2023-11-14T14:33:00,pth,2.40
2023-11-14T14:35:00,pth,2.40
2023-11-14T14:37:00,pth,2.40
2023-11-14T14:38:00,pth,1.20
2023-11-14T14:40:00,pth,2.40
2023-11-14T14:42:00,pth,2.40
2023-11-14T14:43:00,pth,1.20
2023-11-14T14:45:00,pth,6.00
2023-11-14T14:46:00,pth,2.40
2023-11-14T14:48:00,pth,4.80
2023-11-14T14:50:00,pth,4.80
2023-11-14T14:51:00,pth,1.20
2023-11-14T14:53:00,pth,3.60
2023-11-14T14:55:00,pth,2.40
2023-11-14T14:57:00,pth,1.20
2023-11-14T14:58:00,pth,1.20
2023-11-14T15:00:00,pth,2.40
2023-11-14T15:02:00,pth,2.40
2023-11-14T15:03:00,pth,1.20
2023-11-14T15:05:00,pth,2.40
2023-11-14T15:06:00,pth,1.20
2023-11-14T15:08:00,pth,4.80
2023-11-14T15:10:00,pth,3.60
2023-11-14T15:11:00,pth,2.40
2023-11-14T15:13:00,pth,4.80
2023-11-14T15:15:00,pth,3.60
2023-11-14T15:17:00,pth,3.60
2023-11-14T15:18:00,pth,1.20
2023-11-14T15:20:00,pth,1.20
2023-11-14T15:21:00,pth,1.20
2023-11-14T15:23:00,pth,1.20
2023-11-14T15:25:00,pth,2.40
2023-11-14T15:26:00,pth,1.20
2023-11-14T15:28:00,pth,2.40
2023-11-14T15:30:00,pth,2.40
2023-11-14T15:31:00,pth,1.20
2023-11-14T15:33:00,pth,4.80
2023-11-14T15:35:00,pth,13.20
2023-11-14T15:37:00,pth,14.40
2023-11-14T15:38:00,pth,8.40
2023-11-14T15:40:00,pth,14.40
2023-11-14T15:41:00,pth,7.20
2023-11-14T15:43:00,pth,15.60
2023-11-14T15:45:00,pth,14.40
2023-11-14T15:46:00,pth,8.40
2023-11-14T15:48:00,pth,14.40
2023-11-14T15:50:00,pth,14.40
2023-11-14T15:52:00,pth,15.60
2023-11-14T15:53:00,pth,7.20
2023-11-14T15:55:00,pth,14.40
2023-11-14T15:56:00,pth,7.20
2023-11-14T15:58:00,pth,14.40
2023-11-14T16:00:00,pth,14.40
2023-11-14T16:01:00,pth,6.00
2023-11-14T16:02:00,pth,7.20
2023-11-14T16:03:00,pth,8.40
2023-11-14T16:05:00,pth,12.00
2023-11-14T16:06:00,pth,7.20
2023-11-14T16:08:00,pth,10.80
2023-11-14T16:10:00,pth,10.80
2023-11-14T16:12:00,pth,13.20
2023-11-14T16:13:00,pth,4.80
2023-11-14T16:15:00,pth,10.80
2023-11-14T16:16:00,pth,7.20
2023-11-14T16:17:00,pth,4.80
2023-11-14T16:18:00,pth,4.80
2023-11-14T16:20:00,pth,10.80
2023-11-14T16:22:00,pth,13.20
2023-11-14T16:23:00,pth,4.80
2023-11-14T16:25:00,pth,9.60
2023-11-14T16:27:00,pth,13.20
2023-11-14T16:28:00,pth,4.80
2023-11-14T16:30:00,pth,10.80
2023-11-14T16:31:00,pth,2.40
2023-11-14T16:33:00,pth,4.80
2023-11-14T16:35:00,pth,4.80
2023-11-14T16:36:00,pth,1.20
2023-11-14T16:38:00,pth,8.40
2023-11-14T16:40:00,pth,15.60
2023-11-14T16:41:00,pth,8.40
2023-11-14T16:42:00,pth,7.20
2023-11-14T16:43:00,pth,8.40
2023-11-14T16:45:00,pth,15.60
2023-11-14T16:46:00,pth,7.20
2023-11-14T16:48:00,pth,15.60
2023-11-14T16:50:00,pth,15.60
2023-11-14T16:52:00,pth,15.60
2023-11-14T16:53:00,pth,7.20
2023-11-14T16:55:00,pth,15.60
2023-11-14T16:56:00,pth,8.40
2023-11-14T16:58:00,pth,13.20
2023-11-14T17:00:00,pth,14.40
2023-11-14T17:01:00,pth,7.20
2023-11-14T17:02:00,pth,3.60
2023-11-14T17:03:00,pth,8.40
2023-11-14T17:05:00,pth,15.60
2023-11-14T17:07:00,pth,16.80
2023-11-14T17:08:00,pth,8.40
2023-11-14T17:10:00,pth,15.60
2023-11-14T17:11:00,pth,9.60
2023-11-14T17:13:00,pth,16.80
2023-11-14T17:15:00,pth,13.20
2023-11-14T17:17:00,pth,13.20
2023-11-14T17:18:00,pth,4.80
2023-11-14T17:20:00,pth,10.80
2023-11-14T17:22:00,pth,12.00
2023-11-14T17:23:00,pth,6.00
2023-11-14T17:25:00,pth,10.80
2023-11-14T17:26:00,pth,7.20
2023-11-14T17:27:00,pth,3.60
2023-11-14T17:28:00,pth,7.20
2023-11-14T17:30:00,pth,10.80
2023-11-14T17:32:00,pth,10.80
2023-11-14T17:33:00,pth,7.20
2023-11-14T17:35:00,pth,7.20
2023-11-14T17:37:00,pth,4.80
2023-11-14T17:38:00,pth,2.40
2023-11-14T17:40:00,pth,3.60
2023-11-14T17:42:00,pth,4.80
2023-11-14T17:43:00,pth,2.40
2023-11-14T17:45:00,pth,3.60
2023-11-14T17:46:00,pth,4.80
2023-11-14T17:48:00,pth,14.40
2023-11-14T17:50:00,pth,14.40
2023-11-14T17:51:00,pth,7.20
2023-11-14T17:53:00,pth,15.60
2023-11-14T17:55:00,pth,15.60
2023-11-14T17:57:00,pth,15.60
2023-11-14T17:58:00,pth,7.20
2023-11-14T18:00:00,pth,15.60
2023-11-14T18:02:00,pth,15.60
2023-11-14T18:03:00,pth,7.20
2023-11-14T18:05:00,pth,15.60
2023-11-14T18:07:00,pth,15.60
2023-11-14T18:08:00,pth,7.20
2023-11-14T18:10:00,pth,15.60
2023-11-14T18:12:00,pth,15.60
2023-11-14T18:13:00,pth,7.20
2023-11-14T18:15:00,pth,16.80
2023-11-14T18:16:00,pth,7.20
2023-11-14T18:17:00,pth,8.40
2023-11-14T18:18:00,pth,8.40
2023-11-14T18:20:00,pth,15.60
2023-11-14T18:21:00,pth,8.40
2023-11-14T18:22:00,pth,7.20
2023-11-14T18:23:00,pth,8.40
2023-11-14T18:25:00,pth,15.60
2023-11-14T18:26:00,pth,8.40
2023-11-14T18:28:00,pth,15.60
2023-11-14T18:30:00,pth,15.60
2023-11-14T18:32:00,pth,15.60
2023-11-14T18:33:00,pth,7.20
2023-11-14T18:35:00,pth,15.60
2023-11-14T18:36:00,pth,8.40
2023-11-14T18:37:00,pth,8.40
2023-11-14T18:39:00,pth,15.60
2023-11-14T18:40:00,pth,7.20
2023-11-14T18:42:00,pth,16.80
2023-11-14T18:43:00,pth,7.20
2023-11-14T18:45:00,pth,12.00
2023-11-14T18:47:00,pth,6.00
2023-11-14T18:48:00,pth,3.60
2023-11-14T18:49:00,pth,2.40
2023-11-14T18:51:00,pth,4.80
2023-11-14T18:52:00,pth,1.20
2023-11-14T18:53:00,pth,1.20
2023-11-14T18:55:00,pth,2.40
2023-11-14T18:57:00,pth,2.40
2023-11-14T18:58:00,pth,1.20
2023-11-14T19:00:00,pth,2.40
2023-11-14T19:02:00,pth,3.60
2023-11-14T19:03:00,pth,1.20
2023-11-14T19:05:00,pth,2.40
2023-11-14T19:06:00,pth,2.40
2023-11-14T19:08:00,pth,2.40
2023-11-14T19:10:00,pth,3.60
2023-11-14T19:12:00,pth,2.40
2023-11-14T19:14:00,pth,2.40
2023-11-14T19:15:00,pth,2.40
2023-11-14T19:17:00,pth,2.40
2023-11-14T19:18:00,pth,1.20
2023-11-14T19:20:00,pth,3.60
2023-11-14T19:21:00,pth,2.40
2023-11-14T19:23:00,pth,4.80
2023-11-14T19:25:00,pth,4.80
2023-11-14T19:27:00,pth,4.80
2023-11-14T19:28:00,pth,1.20
2023-11-14T19:30:00,pth,2.40
2023-11-14T19:32:00,pth,2.40
2023-11-14T19:33:00,pth,1.20
2023-11-14T19:35:00,pth,3.60
2023-11-14T19:36:00,pth,1.20
2023-11-14T19:38:00,pth,9.60
2023-11-14T19:40:00,pth,14.40
2023-11-14T19:42:00,pth,15.60
2023-11-14T19:44:00,pth,15.60
2023-11-14T19:46:00,pth,15.60
2023-11-14T19:48:00,pth,15.60
2023-11-14T19:50:00,pth,16.80
2023-11-14T19:51:00,pth,10.80
2023-11-14T19:53:00,pth,19.20
2023-11-14T19:55:00,pth,20.40
2023-11-14T19:57:00,pth,19.20
2023-11-14T19:58:00,pth,9.60
2023-11-14T20:00:00,pth,20.40
2023-11-14T20:01:00,pth,9.60
2023-11-14T20:03:00,pth,19.20
2023-11-14T20:05:00,pth,15.60
2023-11-14T20:07:00,pth,16.80
2023-11-14T20:08:00,pth,7.20
2023-11-14T20:10:00,pth,16.80
2023-11-14T20:12:00,pth,15.60
2023-11-14T20:13:00,pth,7.20
2023-11-14T20:15:00,pth,15.60
2023-11-14T20:16:00,pth,8.40
2023-11-14T20:18:00,pth,15.60
2023-11-14T20:20:00,pth,15.60
2023-11-14T20:22:00,pth,15.60
2023-11-14T20:23:00,pth,8.40
2023-11-14T20:25:00,pth,15.60
2023-11-14T20:27:00,pth,16.80
2023-11-14T20:28:00,pth,7.20
2023-11-14T20:30:00,pth,16.80
2023-11-14T20:31:00,pth,7.20
2023-11-14T20:33:00,pth,10.80
2023-11-14T20:35:00,pth,9.60
2023-11-14T20:37:00,pth,9.60
2023-11-14T20:38:00,pth,2.40
2023-11-14T20:40:00,pth,4.80
2023-11-14T20:42:00,pth,3.60
2023-11-14T20:43:00,pth,2.40
2023-11-14T20:45:00,pth,2.40
2023-11-14T20:47:00,pth,1.20
2023-11-14T20:48:00,pth,1.20
2023-11-14T20:50:00,pth,2.40
2023-11-14T20:51:00,pth,2.40
2023-11-14T20:53:00,pth,2.40
2023-11-14T20:55:00,pth,2.40
2023-11-14T20:56:00,pth,1.20
2023-11-14T20:58:00,pth,2.40
2023-11-14T21:00:00,pth,2.40
2023-11-14T21:02:00,pth,3.60
2023-11-14T21:03:00,pth,1.20
2023-11-14T21:05:00,pth,1.20
2023-11-14T21:06:00,pth,1.20
2023-11-14T21:08:00,pth,2.40
2023-11-14T21:10:00,pth,2.40
2023-11-14T21:12:00,pth,4.80
2023-11-14T21:13:00,pth,2.40
2023-11-14T21:15:00,pth,3.60
2023-11-14T21:16:00,pth,2.40
2023-11-14T21:18:00,pth,2.40
2023-11-14T21:20:00,pth,2.40
2023-11-14T21:21:00,pth,1.20
2023-11-14T21:22:00,pth,1.20
2023-11-14T21:23:00,pth,1.20
2023-11-14T21:25:00,pth,2.40
2023-11-14T21:26:00,pth,1.20
2023-11-14T21:28:00,pth,2.40
2023-11-14T21:30:00,pth,2.40
2023-11-14T21:32:00,pth,2.40
2023-11-14T21:33:00,pth,1.20
2023-11-14T21:34:00,pth,1.20
2023-11-14T21:36:00,pth,3.60
2023-11-14T21:38:00,pth,2.40
2023-11-14T21:40:00,pth,3.60
2023-11-14T21:42:00,pth,4.80
2023-11-14T21:43:00,pth,2.40
2023-11-14T21:45:00,pth,4.80
2023-11-14T21:47:00,pth,8.40
2023-11-14T21:49:00,pth,6.00
2023-11-14T21:51:00,pth,7.20
2023-11-14T21:52:00,pth,3.60
2023-11-14T21:53:00,pth,2.40
2023-11-14T21:55:00,pth,2.40
2023-11-14T21:57:00,pth,3.60
2023-11-14T21:58:00,pth,1.20
2023-11-14T21:59:00,pth,1.20
2023-11-14T22:01:00,pth,3.60
2023-11-14T22:02:00,pth,1.20
2023-11-14T22:03:00,pth,1.20
2023-11-14T22:05:00,pth,3.60
2023-11-14T22:06:00,pth,1.20
2023-11-14T22:08:00,pth,4.80
2023-11-14T22:10:00,pth,4.80
2023-11-14T22:12:00,pth,4.80
2023-11-14T22:13:00,pth,2.40
2023-11-14T22:14:00,pth,2.40
2023-11-14T22:16:00,pth,2.40
2023-11-14T22:18:00,pth,2.40
2023-11-14T22:20:00,pth,2.40
2023-11-14T22:22:00,pth,2.40
2023-11-14T22:23:00,pth,1.20
2023-11-14T22:25:00,pth,3.60
2023-11-14T22:28:00,pth,3.60
2023-11-14T22:30:00,pth,3.60
2023-11-14T22:32:00,pth,2.40
2023-11-14T22:33:00,pth,2.40
2023-11-14T22:35:00,pth,6.00
2023-11-14T22:36:00,pth,4.80
2023-11-14T22:38:00,pth,9.60
2023-11-14T22:40:00,pth,8.40
2023-11-14T22:42:00,pth,6.00
2023-11-14T22:43:00,pth,1.20
2023-11-14T22:45:00,pth,3.60
2023-11-14T22:46:00,pth,1.20
2023-11-14T22:48:00,pth,3.60
2023-11-14T22:50:00,pth,3.60
2023-11-14T22:52:00,pth,3.60
2023-11-14T22:53:00,pth,1.20
2023-11-14T22:55:00,pth,3.60
2023-11-14T22:56:00,pth,2.40